Location: Fort Wayne
(41.1310°N, 85.1290°W)
Time: 05:23:40
(UTC-05:00)

Gbstr 26 Del rocket - Visible Passes

Search period start: 21 November 2014 00:00
Search period end: 01 December 2014 00:00
Orbit: 493 x 1276 km, 51.8° (Epoch: 20 November)

Date Brightness Start Highest point End Pass type
(mag) Time Alt. Az. Time Alt. Az. Time Alt. Az.
21 Nov 5.7 04:01:57 24° NE 04:01:57 24° NE 04:04:03 10° NE visible
21 Nov 4.8 05:44:38 28° NW 05:46:09 31° NNW 05:50:59 10° NE visible
22 Nov 5.9 03:59:28 21° NE 03:59:28 21° NE 04:01:18 10° NE visible
22 Nov 4.9 05:42:08 27° NNW 05:43:35 30° N 05:48:21 10° NE visible
23 Nov 6.0 03:56:56 19° NE 03:56:56 19° NE 03:58:32 10° NE visible
23 Nov 4.9 05:39:36 27° NNW 05:41:01 29° N 05:45:45 10° NE visible
24 Nov 6.1 03:54:22 18° NE 03:54:22 18° NE 03:55:47 10° NE visible
24 Nov 4.9 05:37:02 26° NNW 05:38:27 29° N 05:43:10 10° ENE visible
25 Nov 6.2 03:51:47 17° NE 03:51:47 17° NE 03:53:01 10° NE visible
25 Nov 4.9 05:34:27 27° NNW 05:35:53 30° N 05:40:36 10° ENE visible
26 Nov 6.2 03:49:11 16° NE 03:49:11 16° NE 03:50:17 10° NE visible
26 Nov 4.9 05:31:52 28° NNW 05:33:18 31° N 05:38:04 10° ENE visible
27 Nov 6.3 03:46:36 15° NE 03:46:36 15° NE 03:47:34 10° NE visible
27 Nov 4.9 05:29:16 29° NNW 05:30:43 32° N 05:35:31 10° ENE visible
28 Nov 6.4 03:44:00 14° NE 03:44:00 14° NE 03:44:52 10° NE visible
28 Nov 4.8 05:26:41 31° NNW 05:28:06 35° NNE 05:32:58 10° ENE visible
28 Nov 3.5 07:10:09 10° NW 07:16:02 88° NE 07:20:42 10° SE visible
29 Nov 6.4 03:41:26 14° NE 03:41:26 14° NE 03:42:11 10° ENE visible
29 Nov 4.6 05:24:07 34° NNW 05:25:28 38° NNE 05:30:25 10° E visible
29 Nov 3.5 07:07:20 10° NW 07:13:12 75° SW 07:17:51 10° SE visible
30 Nov 6.4 03:38:53 13° NE 03:38:53 13° NE 03:39:32 10° ENE visible
30 Nov 4.5 05:21:34 38° N 05:22:47 43° NNE 05:27:49 10° E visible
30 Nov 3.7 07:04:31 10° WNW 07:10:18 59° SW 07:14:54 10° SE visible
